Find Starlink 32499

NORAD ID: 61959 Int'l Des: 2024-210 Owner: SPXS Country: US Constellation: starlink operational
LEOCIRCULAR

現在のビュー

3D地球を読み込み中...

About Starlink 32499

Starlink 32499 (NORAD 61959) is a starlink constellation satellite (v2 mini) launched Nov 14, 2024 by SPXS of US. It operates in LEO, CIRCULAR orbit with a mass of 730.00 kg.

Starlink 32499について

説明を読み込み中...

次回通過

Passes for default location (London). Set your location on the main map for personalized predictions.

高度履歴

Loading altitude history...

軌道要素

1 61959U 24210A 26170.16302686 .00008528 00000-0 31891-3 0 9995
2 61959 43.0041 326.3612 0001674 281.2366 78.8297 15.27595672 90440
Epoch: Jun 19, 2026 • Age: 30 hours

現在のステータス

高度 486.1 km
速度 7.62 km/s
衛星直下点 -18.77°S, 114.59°W
打ち上げ日 Nov 14, 2024
運用期間 1.5 years
タイプ internet

技術仕様

分類 Payload
質量 730.00 kg
乾燥質量 700.00 kg
総質量 730.00 kg
長さ 0.30 m
直径 4.10 m
スパン 29.00 m
形状 Box + pan
製造者 SPXS
バスタイプ Starlink V2M
フェーズステータス In Orbit
所有者/国 SPXS/US

Most Searched